This demonstration page uses our WeatherBlox Daily Observations layout. Learn more.

Left ArrowRight Arrow

39.51506, -84.39828

Hourly Observations for January 30, 2019

Temp ( °F °C ) Dew Point ( °F °C ) Humidity (%) Winds ( mph kmh ) Pressure ( in mb ) Visibility ( mi km ) Precip ( " mm )
12:15 am 00:15 Cloudy with Light Snow 11 -11.4 6 -14.4 79 79 W 9 15 30.11 1020 3 4 0.00 0.00
12:35 am 00:35 Cloudy with Light Snow 11 -11.5 2 -16.4 67 67 W 10 17 30.10 1019 7 11 0.00 0.00
12:55 am 00:55 Cloudy 10 -12.2 0 -17.9 63 63 NW 15 24 30.11 1020 10 16 0.00 0.00
1:15 am 01:15 Cloudy 9 -12.9 -3 -19.3 59 59 W 8 13 30.12 1020 10 16 0.00 0.00
1:35 am 01:35 Cloudy 8 -13.2 -4 -20.2 56 56 W 14 22 30.11 1020 10 16 0.00 0.00
1:55 am 01:55 Cloudy 8 -13.4 -5 -20.8 54 54 W 12 19 30.12 1020 10 16 0.00 0.00
2:15 am 02:15 Cloudy with Light Snow 8 -13.6 -4 -20.2 58 58 W 13 20 30.12 1020 10 16 0.00 0.00
2:35 am 02:35 Cloudy 7 -13.8 -7 -21.4 53 53 WNW 10 17 30.12 1020 10 16 0.00 0.00
2:55 am 02:55 Cloudy 6 -14.2 -8 -22.2 51 51 W 17 28 30.14 1021 10 16 0.00 0.00
3:15 am 03:15 Clear 5 -15.2 -8 -22.1 56 56 WNW 13 20 30.14 1021 10 16 0.00 0.00
3:35 am 03:35 Clear 3 -15.9 -10 -23.2 54 54 WNW 12 19 30.14 1021 10 16 0.00 0.00
3:55 am 03:55 Clear 2 -16.5 -10 -23.5 55 55 W 9 15 30.14 1021 10 16 0.00 0.00
4:15 am 04:15 Clear 1 -17 -10 -23.5 57 57 W 8 13 30.14 1021 10 16 0.00 0.00
4:35 am 04:35 Clear 2 -16.8 -11 -24.1 53 53 W 13 20 30.13 1020 10 16 0.00 0.00
4:55 am 04:55 Clear 1 -17.2 -11 -24.1 55 55 WSW 7 11 30.13 1020 10 16 0.00 0.00
5:15 am 05:15 Clear 1 -17.1 -12 -24.2 54 54 WSW 8 13 30.12 1020 10 16 0.00 0.00
5:35 am 05:35 Clear 1 -17.4 -11 -24.1 56 56 WSW 8 13 30.13 1020 10 16 0.00 0.00
5:55 am 05:55 Clear 1 -17.4 -11 -23.7 58 58 SW 9 15 30.14 1021 10 16 0.00 0.00
6:15 am 06:15 Clear 1 -17.2 -10 -23.6 58 58 WSW 10 17 30.14 1020 10 16 0.00 0.00
6:35 am 06:35 Mostly Cloudy 2 -16.7 -11 -23.8 54 54 WSW 20 31 30.14 1021 10 16 0.00 0.00
6:55 am 06:55 Cloudy 2 -16.5 -10 -23.4 55 55 WSW 24 39 30.15 1021 7 11 0.00 0.00
7:15 am 07:15 Cloudy with Light Snow 2 -16.6 -4 -20.1 75 75 W 17 28 30.16 1021 1 2 0.00 0.00
7:35 am 07:35 Cloudy with Light Snow 1 -17.2 -7 -21.8 68 68 W 15 24 30.20 1023 2 3 0.00 0.00
7:55 am 07:55 Cloudy with Haze 0 -17.8 -10 -23.3 62 62 WNW 21 33 30.23 1024 4 6 0.00 0.00
8:15 am 08:15 Cloudy -1 -18.3 -12 -24.6 58 58 WNW 25 41 30.25 1024 7 11 0.00 0.00
8:35 am 08:35 Windy with Snow Likely -2 -19.1 -11 -23.7 67 67 WNW 20 31 30.28 1025 2 2 0.00 0.00
10:35 am 10:35 Sunny -6 -21 -20 -29 49 49 W 20 31 30.40 1029 10 16 0.00 0.00
10:55 am 10:55 Sunny -5 -20.5 -20 -28.7 48 48 W 18 30 30.42 1030 10 16 0.00 0.00
11:15 am 11:15 Sunny -5 -20.3 -18 -28 50 50 W 17 28 30.43 1030 10 16 0.00 0.00
11:35 am 11:35 Mostly Cloudy -5 -20.3 -16 -26.7 57 57 W 13 20 30.44 1031 10 16 0.00 0.00
11:55 am 11:55 Sunny -4 -20.1 -19 -28.4 48 48 W 13 20 30.45 1031 10 16 0.00 0.00
12:15 pm 12:15 Sunny -4 -19.9 -19 -28.1 48 48 W 13 20 30.44 1031 10 16 0.00 0.00
12:35 pm 12:35 Sunny -3 -19.6 -19 -28.2 47 47 WSW 18 30 30.44 1031 10 16 0.00 0.00
12:55 pm 12:55 Sunny -3 -19.5 -18 -28 47 47 W 12 19 30.44 1031 10 16 0.00 0.00
1:15 pm 13:15 Sunny -2 -19.1 -18 -27.9 46 46 W 17 28 30.44 1031 10 16 0.00 0.00
1:35 pm 13:35 Sunny -1 -18.4 -16 -26.7 48 48 WSW 13 20 30.44 1031 10 16 0.00 0.00
1:55 pm 13:55 Sunny -1 -18.3 -15 -26 51 51 WSW 15 24 30.44 1031 10 16 0.00 0.00
2:15 pm 14:15 Partly Cloudy -1 -18.2 -14 -25.6 52 52 WSW 15 24 30.44 1031 10 16 0.00 0.00
2:35 pm 14:35 Sunny 0 -17.9 -14 -25.6 51 51 SW 17 28 30.44 1031 10 16 0.00 0.00
2:55 pm 14:55 Sunny 0 -17.6 -14 -25.5 50 50 WSW 16 26 30.45 1031 10 16 0.00 0.00
3:15 pm 15:15 Sunny 1 -17.5 -14 -25.7 49 49 WSW 10 17 30.44 1031 10 16 0.00 0.00
3:35 pm 15:35 Sunny 1 -17.3 -14 -25.8 48 48 WSW 10 17 30.44 1031 10 16 0.00 0.00
3:55 pm 15:55 Sunny 1 -17.1 -14 -25.4 49 49 WSW 12 19 30.44 1031 10 16 0.00 0.00
4:15 pm 16:15 Sunny 1 -17.1 -14 -25.7 47 47 WSW 13 20 30.45 1031 10 16 0.00 0.00
4:35 pm 16:35 Sunny 2 -16.9 -14 -25.4 48 48 SW 14 22 30.43 1031 10 16 0.00 0.00
4:55 pm 16:55 Sunny 1 -17 -15 -25.9 46 46 WSW 12 19 30.45 1031 10 16 0.00 0.00
5:15 pm 17:15 Sunny 1 -17.1 -15 -26 46 46 WSW 10 17 30.44 1031 10 16 0.00 0.00
5:35 pm 17:35 Sunny 1 -17.2 -14 -25.7 48 48 SW 13 20 30.44 1031 10 16 0.00 0.00
5:55 pm 17:55 Clear 0 -17.6 -14 -25.6 50 50 WSW 9 15 30.45 1031 10 16 0.00 0.00
6:15 pm 18:15 Clear 0 -17.6 -14 -25.6 50 50 WSW 10 17 30.45 1031 10 16 0.00 0.00
6:35 pm 18:35 Clear 0 -17.7 -14 -25.5 51 51 WSW 8 13 30.46 1031 10 16 0.00 0.00
7:15 pm 19:15 Clear -1 -18.4 -14 -25.4 54 54 WSW 5 7 30.46 1031 10 16 0.00 0.00
7:35 pm 19:35 Clear -1 -18.3 -14 -25.4 54 54 WSW 6 9 30.46 1031 10 16 0.00 0.00
7:55 pm 19:55 Clear -1 -18.4 -14 -25.3 55 55 W 6 9 30.47 1032 10 16 0.00 0.00
8:15 pm 20:15 Clear -1 -18.4 -14 -25.4 54 54 WSW 6 9 30.47 1032 10 16 0.00 0.00
8:35 pm 20:35 Clear -1 -18.6 -14 -25.5 55 55 SW 5 7 30.47 1032 10 16 0.00 0.00
8:55 pm 20:55 Clear -2 -18.7 -13 -25.2 57 57 SW 5 7 30.46 1032 10 16 0.00 0.00
9:15 pm 21:15 Clear -2 -18.9 -13 -25.2 58 58 SW 5 7 30.47 1032 10 16 0.00 0.00
9:35 pm 21:35 Clear -3 -19.2 -13 -24.9 61 61 WSW 3 6 30.47 1032 10 16 0.00 0.00
9:55 pm 21:55 Clear -3 -19.2 -12 -24.2 65 65 Calm 30.48 1032 10 16 0.00 0.00
10:15 pm 22:15 Clear -3 -19.5 -13 -25.2 61 61 Calm 30.48 1032 10 16 0.00 0.00
10:35 pm 22:35 Clear -4 -20 -10 -23.2 76 76 Calm 30.49 1033 10 16 0.00 0.00
10:55 pm 22:55 Clear -4 -19.8 -12 -24.7 65 65 SW 7 11 30.49 1033 10 16 0.00 0.00
11:15 pm 23:15 Clear -2 -19 -12 -24.6 61 61 SW 7 11 30.50 1033 10 16 0.00 0.00
11:35 pm 23:35 Clear -2 -18.9 -12 -24.4 62 62 SW 8 13 30.50 1033 10 16 0.00 0.00
11:55 pm 23:55 Clear -2 -19.1 -12 -24.5 63 63 SW 6 9 30.50 1033 10 16 0.00 0.00

Powered by AerisWeather